SCP
0 0 0 0 0 0 -0 0 0 0 0 0 0 -0 -0 -0 0 -0 -0 -0 -0 -0 -0 -0 -0 -0 0 -0 -0 -0 0 -0
0 0 0 0 0 -0 -0 0 -0 -0 0 0 0 -0 -0 -0 -0 -0 -0 -0 -0 -0 -0 -0 -0 -0 0 -0 0 -0 0 0
0 0 0 0 0 0 0 0 0 -0 0 0 0 -0 -0 -0 -0 -0 -0 -0 -0 -0 -0 -0 -0 -0 -0 -0 0 0 0 0
0 -0 0 0 0 0 0 0 0 0 -0 0 -0 -0 -0 -0 -0 -0 -0 -0 -0 -0 -0 -0 -0 -0 -0 -0 0 0 0 0
0 0 0 0 0 0 0 0 0 -0 0 -0 -0 -0 -0 -0 -0 -0 -0 -0 -0 -0 -0 -0 -0 -0 -0 -0 -0 0 0 0
0 -0 0 0 0 0 0 0 -0 -0 -0 0 -0 -0 -0 -0 -0 -0 -0 -0 -0 -0 -0 -0 -0 -0 -0 -0 -0 0 0 0
0 0 0 0 0 0 0 -0 -0 0 -0 0 0 -0 -0 -0 -0 -0 -0 -0 -0 -0 -0 -0 -0 -0 -0 -0 0 0 0 0
0 0 0 0 0 0 0 0 0 -0 0 0 0 0 -0 -0 -0 -0 -0 -0 -0 -0 -0 -0 -0 -0 -0 -0 -0 -0 -0 0
0 0 0 0 0 0 0 0 0 0 -0 0 -0 0 0 -0 -0 -0 -0 -0 -0 -0 -0 -0 -0 -0 -0 -0 -0 0 0 0
0 0 0 0 -0 -0 0 0 0 0 0 0 0 -0 0 0 -0 -0 -0 -0 -0 -0 -0 -0 -0 -0 -0 -0 -0 -0 -0 -0
0 0 0 0 0 0 0 0 0 0 0 0 0 0 -0 -0 0 -0 -0 0 0 -0 -0 -0 -0 -0 -0 -0 -0 0 0 0
0 0 0 0 0 0 0 0 0 0 0 0 0 0 -0 0 0 -0 0 0 0 0 -0 -0 -0 -0 -0 -0 0 0 -0 -0
0 0 0 0 0 0 0 0 0 0 0 0 0 0 0 0 0 -0 -0 0 0 0 -0 -0 -0 -0 0 0 0 0 0 -0
0 0 0 0 0 0 0 0 0 0 0 0 0 0 0 0 0 0 0 0 0 0 1 0 -0 0 0 0 0 0 0 -0
0 0 0 0 0 0 0 0 0 0 0 0 0 0 0 0 0 0 0 0 0 0 1 1 0 0 0 0 0 -0 -0 -0
0 0 0 0 0 0 0 0 0 0 0 0 0 0 0 0 0 0 0 0 0 0 0 1 1 0 1 1 0 -0 -0 -0
0 0 0 0 0 0 0 0 0 0 0 0 0 0 0 0 0 0 0 0 0 0 1 1 1 1 1 1 0 0 0 0
0 0 0 0 0 0 0 0 0 0 0 0 0 0 0 0 0 0 0 1 0 0 1 1 1 1 1 1 0 0 0 0
0 0 0 0 0 0 0 0 0 0 0 0 0 0 0 0 0 0 1 1 0 0 1 1 2 2 1 1 1 1 1 0
Wind_Speed_500mb
16 11 17 16 17 7 21 25 15 2 8 15 6 19 22 32 40 44 49 51 53 49 45 45 45 44 40 36 33 29 27 30
21 16 11 22 6 13 11 9 11 5 8 12 9 14 27 33 36 41 43 48 50 51 49 44 44 44 41 40 40 35 37 39
23 28 29 15 21 20 19 13 13 14 9 14 6 11 28 35 39 44 50 53 52 51 47 44 44 46 45 43 47 46 45 40
31 31 27 42 30 28 18 15 10 10 12 15 7 17 30 43 38 41 48 55 53 53 52 46 47 47 47 46 43 47 47 45
33 24 14 26 24 25 25 7 17 15 2 16 12 22 32 37 34 40 46 51 52 53 56 51 47 47 47 46 44 44 46 44
29 32 29 35 33 34 29 20 15 15 23 4 11 23 33 32 37 44 51 55 55 55 55 53 50 49 48 45 44 45 42 40
35 33 26 20 36 35 33 34 28 20 14 6 2 18 39 41 41 43 48 54 56 56 56 53 52 50 49 46 46 47 42 38
29 35 34 36 38 40 36 39 33 32 27 22 10 17 42 42 46 51 53 58 59 58 58 57 55 54 50 48 45 43 42 40
27 27 28 40 40 40 40 33 32 28 30 5 10 23 37 49 51 55 59 60 61 63 62 60 57 56 55 51 47 44 40 39
19 14 38 25 30 37 42 31 38 34 33 12 18 19 42 56 54 59 62 64 64 62 58 57 55 54 51 50 51 47 45 43
19 25 27 21 19 25 26 39 39 36 37 38 22 14 17 39 55 59 67 66 65 65 62 59 58 56 56 54 53 49 50 50
19 28 33 24 20 3 17 26 5 25 41 22 25 21 15 41 55 54 61 64 59 60 61 60 59 60 61 57 57 54 53 47
28 28 21 22 7 9 28 5 9 15 10 31 24 31 16 8 41 56 57 56 57 62 70 67 68 66 64 61 60 57 54 48
28 37 43 5 10 23 8 12 8 8 13 11 8 14 12 12 14 41 53 53 58 63 72 76 75 71 68 65 61 59 54 51
23 20 11 5 10 16 9 11 11 10 13 14 14 16 17 16 23 24 47 58 59 65 74 83 82 78 74 65 63 61 55 55
15 21 16 21 20 18 14 11 4 11 16 19 20 20 20 18 13 27 38 53 58 62 66 81 85 80 76 69 65 60 58 59
23 19 5 19 24 11 7 11 9 14 18 20 27 28 26 26 18 23 35 47 54 64 70 88 91 85 78 74 69 62 61 62
21 34 31 9 26 7 12 14 13 21 27 23 27 29 31 28 24 19 34 44 51 56 59 69 85 91 83 76 69 67 66 66
45 46 27 19 22 29 34 32 22 24 29 33 30 32 32 32 25 17 29 43 51 62 60 71 89 88 87 77 75 71 66 65
Wind_Direction_500mb
190 186 239 151 230 307 284 243 256 136 255 225 189 197 178 182 185 181 186 187 188 183 182 182 182 187 186 187 184 177 176 165
162 184 205 260 51 222 213 283 296 247 239 23 4 169 175 182 187 180 181 181 181 181 184 183 184 186 183 187 185 179 168 152
178 216 223 178 221 234 287 282 308 291 64 40 328 198 173 174 173 167 172 175 176 179 182 181 180 184 183 188 188 184 181 173
204 235 240 249 232 230 241 183 237 313 296 44 10 174 172 170 169 170 171 171 173 175 177 177 179 181 183 187 194 184 190 195
212 169 201 226 219 249 247 298 275 289 28 53 109 141 162 157 162 166 169 169 170 173 178 179 179 179 183 187 191 185 187 192
234 226 201 207 215 213 234 239 241 229 305 199 116 160 159 159 164 168 170 172 172 176 180 181 182 180 181 184 185 180 181 188
243 257 244 222 220 208 227 250 268 274 295 297 323 177 173 166 165 169 176 177 177 178 180 181 181 178 176 179 183 180 179 180
245 242 244 248 236 245 225 240 259 262 277 280 291 205 178 172 174 176 183 184 182 180 181 183 184 177 174 174 178 179 175 177
237 218 238 234 237 244 240 227 240 238 248 289 218 204 214 184 185 187 187 188 186 186 185 185 185 181 178 177 178 182 183 181
253 204 236 245 235 221 241 232 232 242 260 252 245 240 216 210 195 194 194 193 193 189 186 185 184 184 180 180 186 191 193 192
238 235 253 231 223 228 237 237 237 247 246 248 230 211 208 222 202 200 198 199 197 192 187 182 181 181 182 186 190 196 201 200
227 249 249 249 224 157 264 246 355 294 241 234 201 219 223 193 202 205 205 203 196 191 185 183 182 184 188 190 194 200 203 201
226 239 245 246 91 230 218 164 37 337 304 204 208 233 345 332 200 204 200 196 197 188 186 183 189 190 191 196 200 201 204 199
233 238 234 71 196 239 59 94 46 32 22 355 288 302 287 239 206 201 197 191 190 185 185 188 193 193 194 201 204 205 205 199
217 226 122 129 118 115 99 113 75 31 3 347 330 321 332 285 241 213 201 194 190 186 186 192 195 196 197 202 207 209 201 200
251 230 190 148 133 115 92 60 65 22 0 345 337 334 333 309 253 222 203 198 192 188 188 190 196 199 202 205 211 205 197 198
232 268 159 192 184 138 54 22 2 347 352 345 341 339 329 316 296 239 214 201 196 194 196 195 195 196 200 204 207 200 198 197
241 233 238 281 178 253 315 332 320 331 334 336 329 325 327 322 303 261 216 204 198 198 198 195 194 194 197 204 204 201 197 197
259 267 270 252 254 284 291 295 284 299 309 312 317 315 320 318 313 271 216 207 202 199 199 199 197 193 197 205 203 202 201 195
Wind_Speed_850mb
16 11 17 16 17 7 21 25 15 2 8 15 6 19 22 32 40 44 49 51 53 49 45 45 45 44 40 36 33 29 27 30
21 16 11 22 6 13 11 9 11 5 8 12 9 14 27 33 36 41 43 48 50 51 49 44 44 44 41 40 40 35 37 39
23 28 29 15 21 20 19 13 13 14 9 14 6 11 28 35 39 44 50 53 52 51 47 44 44 46 45 43 47 46 45 40
31 31 27 42 30 28 18 15 10 10 12 15 7 17 30 43 38 41 48 55 53 53 52 46 47 47 47 46 43 47 47 45
33 24 14 26 24 25 25 7 17 15 2 16 12 22 32 37 34 40 46 51 52 53 56 51 47 47 47 46 44 44 46 44
29 32 29 35 33 34 29 20 15 15 23 4 11 23 33 32 37 44 51 55 55 55 55 53 50 49 48 45 44 45 42 40
35 33 26 20 36 35 33 34 28 20 14 6 2 18 39 41 41 43 48 54 56 56 56 53 52 50 49 46 46 47 42 38
29 35 34 36 38 40 36 39 33 32 27 22 10 17 42 42 46 51 53 58 59 58 58 57 55 54 50 48 45 43 42 40
27 27 28 40 40 40 40 33 32 28 30 5 10 23 37 49 51 55 59 60 61 63 62 60 57 56 55 51 47 44 40 39
19 14 38 25 30 37 42 31 38 34 33 12 18 19 42 56 54 59 62 64 64 62 58 57 55 54 51 50 51 47 45 43
19 25 27 21 19 25 26 39 39 36 37 38 22 14 17 39 55 59 67 66 65 65 62 59 58 56 56 54 53 49 50 50
19 28 33 24 20 3 17 26 5 25 41 22 25 21 15 41 55 54 61 64 59 60 61 60 59 60 61 57 57 54 53 47
28 28 21 22 7 9 28 5 9 15 10 31 24 31 16 8 41 56 57 56 57 62 70 67 68 66 64 61 60 57 54 48
28 37 43 5 10 23 8 12 8 8 13 11 8 14 12 12 14 41 53 53 58 63 72 76 75 71 68 65 61 59 54 51
23 20 11 5 10 16 9 11 11 10 13 14 14 16 17 16 23 24 47 58 59 65 74 83 82 78 74 65 63 61 55 55
15 21 16 21 20 18 14 11 4 11 16 19 20 20 20 18 13 27 38 53 58 62 66 81 85 80 76 69 65 60 58 59
23 19 5 19 24 11 7 11 9 14 18 20 27 28 26 26 18 23 35 47 54 64 70 88 91 85 78 74 69 62 61 62
21 34 31 9 26 7 12 14 13 21 27 23 27 29 31 28 24 19 34 44 51 56 59 69 85 91 83 76 69 67 66 66
45 46 27 19 22 29 34 32 22 24 29 33 30 32 32 32 25 17 29 43 51 62 60 71 89 88 87 77 75 71 66 65
Wind_Direction_850mb
190 186 239 151 230 307 284 243 256 136 255 225 189 197 178 182 185 181 186 187 188 183 182 182 182 187 186 187 184 177 176 165
162 184 205 260 51 222 213 283 296 247 239 23 4 169 175 182 187 180 181 181 181 181 184 183 184 186 183 187 185 179 168 152
178 216 223 178 221 234 287 282 308 291 64 40 328 198 173 174 173 167 172 175 176 179 182 181 180 184 183 188 188 184 181 173
204 235 240 249 232 230 241 183 237 313 296 44 10 174 172 170 169 170 171 171 173 175 177 177 179 181 183 187 194 184 190 195
212 169 201 226 219 249 247 298 275 289 28 53 109 141 162 157 162 166 169 169 170 173 178 179 179 179 183 187 191 185 187 192
234 226 201 207 215 213 234 239 241 229 305 199 116 160 159 159 164 168 170 172 172 176 180 181 182 180 181 184 185 180 181 188
243 257 244 222 220 208 227 250 268 274 295 297 323 177 173 166 165 169 176 177 177 178 180 181 181 178 176 179 183 180 179 180
245 242 244 248 236 245 225 240 259 262 277 280 291 205 178 172 174 176 183 184 182 180 181 183 184 177 174 174 178 179 175 177
237 218 238 234 237 244 240 227 240 238 248 289 218 204 214 184 185 187 187 188 186 186 185 185 185 181 178 177 178 182 183 181
253 204 236 245 235 221 241 232 232 242 260 252 245 240 216 210 195 194 194 193 193 189 186 185 184 184 180 180 186 191 193 192
238 235 253 231 223 228 237 237 237 247 246 248 230 211 208 222 202 200 198 199 197 192 187 182 181 181 182 186 190 196 201 200
227 249 249 249 224 157 264 246 355 294 241 234 201 219 223 193 202 205 205 203 196 191 185 183 182 184 188 190 194 200 203 201
226 239 245 246 91 230 218 164 37 337 304 204 208 233 345 332 200 204 200 196 197 188 186 183 189 190 191 196 200 201 204 199
233 238 234 71 196 239 59 94 46 32 22 355 288 302 287 239 206 201 197 191 190 185 185 188 193 193 194 201 204 205 205 199
217 226 122 129 118 115 99 113 75 31 3 347 330 321 332 285 241 213 201 194 190 186 186 192 195 196 197 202 207 209 201 200
251 230 190 148 133 115 92 60 65 22 0 345 337 334 333 309 253 222 203 198 192 188 188 190 196 199 202 205 211 205 197 198
232 268 159 192 184 138 54 22 2 347 352 345 341 339 329 316 296 239 214 201 196 194 196 195 195 196 200 204 207 200 198 197
241 233 238 281 178 253 315 332 320 331 334 336 329 325 327 322 303 261 216 204 198 198 198 195 194 194 197 204 204 201 197 197
259 267 270 252 254 284 291 295 284 299 309 312 317 315 320 318 313 271 216 207 202 199 199 199 197 193 197 205 203 202 201 195